Home   Weather   Brookline   Past weeks
Flag for USA

Past Weather in Brookline, Massachusetts, USA — Yesterday and Last 2 Weeks

Now
39 °F

Light rain. Fog.


Feels Like: 29 °F
Forecast: 44 / 42 °F
Wind: 20 mph from East

Location: Logan International Airport

Current Time: Mar 29, 2020 at 6:24:16 pm

Latest Report: Mar 29, 2020 at 5:54 pm


Visibility: 1 mi

Pressure: 30.03 "Hg

Humidity: 93%

Dew Point: 37 °F

Location of BrooklineLocation

Past Weather in Brookline — Graph

°F

Brookline Temperature Yesterday

Maximum temperature yesterday: 48 °F (at 6:54 pm)
Minimum temperature yesterday: 38 °F (at 5:54 am)
Average temperature yesterday: 44 °F

High & Low Weather Summary for the Past Weeks

 TemperatureHumidityPressure
High67 °F (Mar 20, 4:54 pm)97% (Mar 17, 10:54 am)30.75 "Hg (Mar 17, 10:54 am)
Low25 °F (Mar 16, 5:54 am)15% (Mar 27, 4:54 pm)29.65 "Hg (Mar 20, 4:54 pm)
Average41 °F65%30.23 "Hg
* Reported Mar 14 4:54 pm — Mar 29 4:59 pm, Brookline. Weather by CustomWeather, © 2020

Note: Actual official high and low records may vary slightly from our data, if they occured in-between our weather recording intervals... More about our weather records

Brookline Weather History for the Previous 24 Hours

Scroll right to see more
 ConditionsComfort  
Time TempWeatherWind HumidityBarometerVisibility
4:59 pm
Sun, Mar 29
39 °FLight rain. Fog.20 mph93%30.06 "Hg1 mi
4:32 pm39 °FLight rain. Fog.21 mph93%30.08 "Hg2 mi
4:13 pm40 °FLight rain. Fog.18 mph89%30.09 "Hg2 mi
3:54 pm40 °FOvercast.20 mph89%30.09 "Hg10 mi
2:54 pm40 °FCloudy.21 mph93%30.09 "Hg10 mi
2:25 pm40 °FLight rain. Fog.17 mph93%30.12 "Hg6 mi
2:20 pm40 °FLight rain. Fog.18 mph93%30.12 "Hg6 mi
1:58 pm41 °FLight rain. Fog.22 mph93%30.11 "Hg4 mi
1:41 pm41 °FRain. Fog.18 mph93%30.12 "Hg2 mi
1:33 pm41 °FLight rain. Fog.16 mph93%30.14 "Hg2 mi
1:22 pm41 °FHeavy rain. Fog.13 mph93%30.17 "Hg1 mi
1:09 pm41 °FLight rain. Fog.7 mph93%30.21 "Hg1 mi
12:54 pm41 °FLight rain. Fog.8 mph89%30.20 "Hg2 mi
11:54 am42 °FDrizzle. Fog.14 mph82%30.16 "Hg6 mi
11:01 am42 °FLight rain. Fog.18 mph92%30.18 "Hg3 mi
10:04 am43 °FLight rain. Fog.15 mph93%30.19 "Hg1 mi
9:43 am43 °FLight rain. Fog.16 mph93%30.18 "Hg2 mi
9:02 am43 °FFog.15 mph93%30.18 "Hg5 mi
8:03 am43 °FFog.15 mph93%30.18 "Hg2 mi
7:43 am42 °FFog.14 mph96%30.18 "Hg2 mi
6:54 am42 °FLight rain. Fog.10 mph96%30.18 "Hg1 mi
5:54 am42 °FLight rain. Fog.12 mph96%30.17 "Hg2 mi
5:19 am42 °FLight rain. Fog.15 mph92%30.15 "Hg2 mi
4:54 am42 °FLight rain. Fog.13 mph96%30.16 "Hg3 mi
4:26 am42 °FLight rain. Fog.12 mph96%30.16 "Hg3 mi
3:54 am42 °FRain. Fog.12 mph92%30.16 "Hg2 mi
3:25 am42 °FLight rain. Fog.9 mph96%30.16 "Hg2 mi
3:07 am42 °FLight rain. Fog.9 mph96%30.16 "Hg5 mi
2:54 am42 °FLight rain. Fog.8 mph92%30.15 "Hg4 mi
2:37 am42 °FLight rain. Fog.12 mph92%30.15 "Hg5 mi
1:54 am42 °FLight rain. Overcast.12 mph92%30.15 "Hg7 mi
12:54 am42 °FLight rain. Mostly cloudy.6 mph92%30.16 "Hg7 mi
11:54 pm
Sat, Mar 28
42 °FLight rain. Mostly cloudy.7 mph89%30.18 "Hg9 mi
10:54 pm42 °FLight rain. Mostly cloudy.7 mph89%30.20 "Hg8 mi
9:54 pm44 °FLight rain. Overcast.5 mph82%30.20 "Hg10 mi
8:54 pm45 °FLight rain. Overcast.8 mph74%30.20 "Hg10 mi
7:54 pm47 °FOvercast.13 mph69%30.18 "Hg10 mi
6:54 pm48 °FLight rain. Overcast.13 mph63%30.16 "Hg10 mi
Weather by CustomWeather, © 2020

See weather overview

Advertising